カタログに戻る

STARLINK-32385

運用中通信VLEO
NORAD 61068·PAYLOAD·🇺🇸 United States

打ち上げ Sep 13, 2024 から Vandenberg Space Force Base

Loading…

次のパス (今後24時間)

TLE

最新Source: CelesTrak SupGP

元期: Sep 15, 2026, 02:50 UTC

1 61068C 24164U   26258.11854167  .00011535  00000+0  37087-3 0  2584
2 61068  53.1588 290.0309 0001130  94.0536  28.5795 15.31702774    12

AllMySatでSTARLINK-32385をリアルタイム追跡

Download on the App Store